CW2969 Weather Reports


time (UTC)temp
C
wind
direction
speed
KPH
gust
KPH
rain 1hr
cm
rain 24hr
cm
rain mn
cm
humidity
%
barometer
mb
20260503021014 17 101 0.0 0.0 0.00 0.00 0.00 64 1019.2
20260503020514 17 101 0.0 0.0 0.00 0.00 0.00 63 1019.2
20260503020014 17 101 0.0 0.0 0.00 0.00 0.00 62 1019.3
20260503015514 17 101 0.0 0.0 0.00 0.00 0.00 61 1019.1
20260503015014 18 101 0.0 0.0 0.00 0.00 0.00 60 1019.1
20260503014514 18 101 0.0 0.0 0.00 0.00 0.00 59 1019.2
20260503014014 18 101 0.0 0.0 0.00 0.00 0.00 58 1019.1
20260503013514 19 101 0.0 0.0 0.00 0.00 0.00 57 1019.3
20260503013014 19 101 0.0 0.0 0.00 0.00 0.00 56 1019.3
20260503012514 20 101 0.0 0.0 0.00 0.00 0.00 55 1019.2
20260503011514 20 101 0.0 0.0 0.00 0.00 0.00 54 1019.0
20260503011014 21 101 0.0 0.0 0.00 0.00 0.00 53 1019.0
20260503010514 21 101 0.0 0.0 0.00 0.00 0.00 51 1019.0
20260503010014 22 101 0.0 0.0 0.00 0.00 0.00 50 1019.1
20260503005513 22 101 0.0 1.6 0.00 0.00 0.00 48 1019.0
20260503005013 22 101 0.0 1.6 0.00 0.00 0.00 47 1018.9
20260503004513 23 101 0.0 1.6 0.00 0.00 0.00 46 1018.9
20260503004014 23 103 0.0 1.6 0.00 0.00 0.00 45 1018.9
20260503003513 23 74 0.0 3.2 0.00 0.00 0.00 45 1018.8
20260503003013 23 98 1.6 3.2 0.00 0.00 0.00 44 1018.9
20260503002513 23 39 1.6 1.6 0.00 0.00 0.00 45 1018.9
20260503002013 23 107 0.0 1.6 0.00 0.00 0.00 44 1018.9
20260503000513 23 205 3.2 4.8 0.00 0.03 0.00 43 1018.7
20260502235513 24 88 0.0 3.2 0.00 0.03 0.00 43 1018.7
20260502234013 24 336 0.0 4.8 0.00 0.03 0.00 43 1018.6
20260502233513 24 100 1.6 6.4 0.00 0.03 0.00 43 1018.6
20260502233013 24 78 0.0 6.4 0.00 0.03 0.00 43 1018.6
20260502232513 24 37 1.6 3.2 0.00 0.03 0.00 44 1018.5
20260502232013 24 82 0.0 3.2 0.00 0.03 0.00 43 1018.5
20260502231513 24 66 0.0 11.3 0.00 0.03 0.00 44 1018.6
20260502231013 24 355 6.4 11.3 0.00 0.03 0.00 44 1018.6
20260502230012 25 134 0.0 6.4 0.00 0.03 0.00 45 1018.5
20260502225512 24 336 3.2 6.4 0.00 0.03 0.00 45 1018.6
20260502225012 24 360 3.2 4.8 0.00 0.03 0.00 45 1018.6
20260502224512 24 67 1.6 6.4 0.00 0.03 0.00 44 1018.7
20260502223512 24 119 0.0 3.2 0.00 0.03 0.00 45 1018.7
20260502223013 24 126 3.2 11.3 0.00 0.03 0.00 45 1018.7
20260502222512 24 348 3.2 11.3 0.00 0.05 0.00 46 1018.7
20260502222012 25 93 3.2 6.4 0.00 0.05 0.00 45 1018.8
20260502221512 25 153 1.6 6.4 0.00 0.08 0.00 45 1018.9
20260502220512 25 43 1.6 9.7 0.00 0.15 0.00 45 1018.9
20260502213012 25 70 3.2 9.7 0.00 0.28 0.00 46 1019.2
20260502212512 24 107 3.2 11.3 0.00 0.33 0.00 47 1019.3
20260502212012 24 138 1.6 11.3 0.00 0.36 0.00 46 1019.3
20260502211511 25 91 4.8 6.4 0.00 0.36 0.00 47 1019.4
20260502211012 24 30 3.2 6.4 0.00 0.38 0.00 46 1019.4
20260502210512 24 311 0.0 1.6 0.00 0.38 0.00 46 1019.5
20260502210011 24 298 1.6 1.6 0.00 0.41 0.00 46 1019.6
20260502205511 24 119 0.0 0.0 0.00 0.43 0.00 47 1019.6
20260502205011 24 306 0.0 4.8 0.00 0.46 0.00 47 1019.7
20260502204011 24 22 3.2 8.0 0.00 0.48 0.00 50 1019.8
20260502203511 24 328 4.8 6.4 0.00 0.48 0.00 50 1019.8
20260502203011 24 334 0.0 4.8 0.00 0.48 0.00 51 1019.9
20260502202511 24 107 0.0 1.6 0.00 0.48 0.00 50 1020.0
20260502202010 23 188 0.0 1.6 0.00 0.48 0.00 52 1019.9
20260502201511 23 344 0.0 3.2 0.00 0.51 0.00 50 1020.0
20260502201011 23 85 0.0 3.2 0.00 0.51 0.00 51 1020.2
20260502200511 23 148 1.6 3.2 0.00 0.53 0.00 51 1020.1
20260502200011 23 98 3.2 9.7 0.00 0.56 0.00 51 1020.2
20260502195510 23 114 9.7 9.7 0.00 0.56 0.00 52 1020.1
20260502194510 23 108 0.0 8.0 0.00 0.58 0.00 54 1020.2
20260502194011 23 351 3.2 12.9 0.00 0.58 0.00 54 1020.3
20260502193510 23 94 12.9 12.9 0.00 0.58 0.00 53 1020.2
20260502193010 23 281 1.6 14.5 0.00 0.61 0.00 54 1020.4
20260502192510 23 360 9.7 14.5 0.00 0.64 0.00 55 1020.4
20260502191510 23 100 3.2 14.5 0.00 0.69 0.00 55 1020.5
20260502190510 23 331 1.6 12.9 0.00 0.69 0.00 56 1020.4
20260502190010 23 105 3.2 4.8 0.00 0.69 0.00 57 1020.4
20260502185510 22 211 1.6 4.8 0.00 0.69 0.00 56 1020.5
20260502185010 22 11 1.6 6.4 0.00 0.69 0.00 57 1020.5
20260502184510 22 103 0.0 11.3 0.00 0.69 0.00 58 1020.6
20260502184010 22 100 4.8 11.3 0.00 0.69 0.00 58 1020.6
20260502183510 22 116 3.2 9.7 0.00 0.69 0.00 58 1020.7
20260502182510 22 213 1.6 4.8 0.00 0.71 0.00 60 1020.8
20260502182010 22 288 3.2 11.3 0.00 0.76 0.00 60 1021.0
20260502181510 22 331 3.2 12.9 0.00 0.81 0.00 62 1021.0
20260502181009 21 355 6.4 14.5 0.00 0.86 0.00 61 1021.1
20260502180509 22 304 6.4 14.5 0.00 0.91 0.00 62 1021.3
20260502164008 20 340 4.8 6.4 0.00 1.14 0.00 68 1022.0
20260502163508 20 172 0.0 6.4 0.00 1.14 0.00 68 1022.0
20260502163008 20 123 3.2 4.8 0.00 1.14 0.00 68 1022.0
20260502162508 19 103 0.0 4.8 0.00 1.14 0.00 69 1022.0
20260502162009 19 93 3.2 8.0 0.00 1.14 0.00 69 1022.0
20260502161509 19 253 0.0 8.0 0.00 1.14 0.00 70 1022.0
20260502161008 19 340 3.2 4.8 0.00 1.14 0.00 71 1022.1
20260502160508 18 16 3.2 4.8 0.00 1.14 0.00 71 1022.1
20260502152011 17 139 1.6 12.9 0.00 1.27 0.00 76 1022.1
20260502151511 17 355 8.0 12.9 0.00 1.27 0.00 78 1022.0
20260502151011 16 125 4.8 8.0 0.00 1.27 0.00 78 1022.0
20260502150511 16 345 4.8 8.0 0.00 1.27 0.00 79 1022.0
20260502130510 12 315 1.6 6.4 0.00 1.70 0.00 82 1020.6
20260502123509 10 341 0.0 4.8 0.00 1.73 0.00 82 1020.2
20260502123009 10 84 0.0 1.6 0.00 1.73 0.00 82 1020.0
20260502122509 10 345 0.0 1.6 0.00 1.78 0.00 83 1019.8
20260502122009 10 84 0.0 0.0 0.00 1.83 0.00 83 1019.8
20260502121509 10 346 0.0 0.0 0.00 1.85 0.00 83 1019.6
20260502121009 10 346 0.0 0.0 0.00 1.85 0.00 83 1019.6
20260502120508 10 346 0.0 0.0 0.00 1.88 0.00 83 1019.6
20260502115508 10 346 0.0 1.6 0.00 1.96 0.00 83 1019.3
20260502114509 10 346 0.0 0.0 0.00 2.03 0.00 83 1019.2
20260502113508 10 346 0.0 0.0 0.00 2.11 0.00 83 1019.1
20260502113008 10 346 0.0 0.0 0.00 2.13 0.00 83 1019.2
20260502112508 10 346 0.0 0.0 0.00 2.13 0.00 83 1019.1
20260502112007 11 346 0.0 1.6 0.00 2.16 0.00 83 1019.1
20260502111507 11 346 0.0 1.6 0.00 2.16 0.00 83 1019.1
20260502111007 11 346 0.0 0.0 0.00 2.16 0.00 83 1019.0
20260502110507 11 346 0.0 1.6 0.00 2.21 0.00 83 1018.9
20260502110007 11 346 1.6 1.6 0.00 2.24 0.00 83 1018.9
20260502105508 11 346 0.0 0.0 0.00 2.29 0.00 83 1018.9
20260502104507 11 346 0.0 1.6 0.00 2.39 0.00 83 1018.7
20260502104007 11 346 0.0 3.2 0.00 2.41 0.00 83 1018.6
20260502103507 11 340 1.6 3.2 0.00 2.46 0.00 83 1018.6
20260502103007 11 355 0.0 3.2 0.00 2.49 0.00 83 1018.6
20260502102507 11 12 3.2 3.2 0.00 2.51 0.00 83 1018.5
20260502102007 11 38 0.0 1.6 0.00 2.54 0.00 83 1018.3
20260502101006 11 38 0.0 4.8 0.00 2.59 0.00 83 1018.2
20260502100506 11 355 1.6 4.8 0.00 2.62 0.00 83 1018.2
20260502091506 11 333 1.6 4.8 0.00 2.72 0.00 83 1017.4
20260502091006 11 5 1.6 4.8 0.00 2.77 0.00 83 1017.4
20260502090506 11 29 0.0 6.4 0.00 2.82 0.00 83 1017.4
20260502065534 12 360 1.6 6.4 0.00 3.40 0.00 83 1017.0
20260502065034 12 360 4.8 4.8 0.00 3.40 0.00 83 1017.0
20260502064534 12 103 0.0 3.2 0.00 3.40 0.00 83 1017.0
20260502063534 12 19 0.0 3.2 0.00 3.43 0.00 83 1017.2
20260502063034 12 23 0.0 3.2 0.00 3.43 0.00 83 1017.2
20260502062534 12 28 1.6 6.4 0.00 3.43 0.00 82 1017.3
20260502062034 12 327 0.0 6.4 0.00 3.43 0.00 82 1017.4
20260502061534 12 19 1.6 8.0 0.00 3.43 0.00 82 1017.3
20260502060534 12 345 3.2 4.8 0.00 3.43 0.00 82 1017.4
20260502055533 12 63 0.0 3.2 0.00 3.43 0.00 82 1017.2
20260502055034 12 24 1.6 3.2 0.00 3.43 0.00 82 1017.2
20260502054534 12 29 1.6 3.2 0.00 3.43 0.00 82 1017.2
20260502054033 12 25 0.0 3.2 0.00 3.43 0.00 82 1017.1
20260502053534 12 33 1.6 3.2 0.00 3.43 0.00 82 1017.2
20260502053034 12 55 0.0 3.2 0.00 3.43 0.00 82 1017.0
20260502052533 12 80 3.2 3.2 0.00 3.43 0.00 82 1017.1
20260502052033 12 22 0.0 1.6 0.00 3.43 0.00 82 1017.1
20260502051533 12 30 1.6 1.6 0.00 3.43 0.00 82 1017.1
20260502051033 12 5 0.0 4.8 0.00 3.43 0.00 82 1017.1
20260502050033 12 360 3.2 4.8 0.00 3.43 0.00 82 1016.8
20260502045533 12 349 0.0 4.8 0.00 3.43 3.43 82 1016.8
20260502045033 12 24 0.0 4.8 0.00 3.43 3.43 82 1017.0
20260502044533 12 55 0.0 3.2 0.00 3.43 3.43 82 1017.0
20260502044033 12 341 0.0 4.8 0.00 3.43 3.43 82 1017.1
20260502043533 13 37 1.6 4.8 0.00 3.43 3.43 82 1017.1
20260502043033 13 355 0.0 4.8 0.00 3.43 3.43 82 1017.1
20260502042033 13 349 0.0 4.8 0.00 3.45 3.43 82 1017.1
20260502041533 13 314 0.0 6.4 0.00 3.45 3.43 82 1017.0
20260502041033 13 350 4.8 6.4 0.00 3.45 3.43 82 1016.9
20260502040532 13 344 1.6 4.8 0.00 3.45 3.43 82 1016.9
20260502040033 13 313 3.2 3.2 0.00 3.45 3.43 82 1016.9
20260502035532 13 113 1.6 6.4 0.00 3.45 3.43 82 1016.9
20260502035032 13 245 0.0 6.4 0.00 3.45 3.43 82 1017.0
20260502034533 13 70 0.0 8.0 0.00 3.45 3.43 82 1017.1
20260502034033 13 348 6.4 8.0 0.00 3.45 3.43 82 1017.1
20260502032532 13 80 3.2 14.5 0.00 3.45 3.43 82 1016.9
20260502032032 13 22 6.4 14.5 0.00 3.45 3.43 82 1016.8
20260502031532 13 117 3.2 3.2 0.00 3.45 3.43 82 1016.7
20260502030532 12 120 4.8 12.9 0.00 3.45 3.43 82 1016.5
20260502030032 12 198 6.4 11.3 0.00 3.45 3.43 81 1016.6
20260502025532 12 346 3.2 6.4 0.00 3.45 3.43 81 1016.5
20260502025031 12 296 4.8 6.4 0.00 3.45 3.43 81 1016.3
20260502024531 12 126 1.6 6.4 0.00 3.45 3.43 81 1016.3
20260502023531 12 138 1.6 4.8 0.00 3.45 3.43 81 1016.1
20260502023031 12 72 1.6 6.4 0.00 3.45 3.43 81 1016.1
20260502022031 12 139 3.2 11.3 0.00 3.48 3.43 81 1015.8